Regional Weather Roundup
Issued by NWS

Home | Current Version | Previous Version | Graphics & Text | Print | Product List | Glossary On
Versions: 1 2 3 4 5 6 7 8 9 10 11 12 13 14 15 16 17 18 19 20 21 22 23 24 25 26 27 28 29 30 31 32 33 34 35 36 37 38 39 40 41 42 43 44 45 46 47 48 49 50
000
ASUS43 KLSX 231010
RWRMO

WEATHER SUMMARY FOR MISSOURI
NATIONAL WEATHER SERVICE SPRINGFIELD MO
500 AM CDT SUN APR 23 2017

NOTE: "FAIR" INDICATES FEW OR NO CLOUDS BELOW 12,000 FEET WITH NO
       SIGNIFICANT WEATHER AND/OR OBSTRUCTIONS TO VISIBILITY.
       CURRENT SKY AND/OR WEATHER CONDITIONS ARE NOT AVAILABLE FOR
       CHILLICOTHE AND FARMINGTON.

MOZ001>031-035>038-043-044-053-054-231100-
...NORTHERN AND WESTERN MISSOURI...

CITY           SKY/WX    TMP DP  RH WIND       PRES   REMARKS
KANSAS CTY INT CLEAR     46  30  53 N5        30.16F
KANSAS C DTWN  CLEAR     45  37  73 CALM      30.16F
LEE`S SUMMIT   CLEAR     43  33  68 N3        30.16S
ST JOSEPH      CLEAR     35  34  96 CALM      30.18S
CHILLICOTHE      N/A     37  34  89 CALM      30.17F
KIRKSVILLE     CLEAR     33  32  96 N5        30.16R WCI  29

$$
MOZ066>068-077>081-088>096-101>105-231100-
...SOUTHWEST MISSOURI...

CITY           SKY/WX    TMP DP  RH WIND       PRES   REMARKS
SPRINGFIELD    CLEAR     40  36  86 N5        30.09R
JOPLIN         CLEAR     40  39  97 N3        30.13R
BRANSON        CLEAR     43  41  93 CALM      30.08S

$$
MOZ032>034-039>042-045>050-055>058-069>072-231100-
...CENTRAL MISSOURI...

CITY           SKY/WX    TMP DP  RH WIND       PRES   REMARKS
COLUMBIA       CLEAR     40  33  76 N8        30.11S
JEFFERSON CITY CLEAR     44  33  65 W5        30.11S
ROLLA          CLEAR     41  33  73 N5        30.07S
WHITEMAN AFB   CLEAR     40  37  88 CALM      30.13S
OSAGE BEACH    CLEAR     42  35  76 N3        30.12R

$$
MOZ051-052-059>065-231100-
...EAST CENTRAL MISSOURI...

CITY           SKY/WX    TMP DP  RH WIND       PRES   REMARKS
ST LOUIS INTL  CLEAR     47  31  53 N7        30.08S
SPIRIT OF STL  CLEAR     37  35  92 CALM      30.08S
ST CHARLES     CLEAR     46  30  53 NE12      30.09R

$$
MOZ072>076-082>087-097>100-106>115-231100-
...SOUTH CENTRAL AND SOUTHEAST MISSOURI...

CITY           SKY/WX    TMP DP  RH WIND       PRES   REMARKS
CAPE GIRARDEAU CLOUDY    49  40  71 N9        29.97R
FARMINGTON     CLEAR     42  36  79 N7        30.04S
POPLAR BLUFF   CLOUDY    49  44  83 N10       29.97R
WEST PLAINS    CLEAR     46  37  71 N12       30.04S

$$



USA.gov is the U.S. government's official web portal to all federal, state and local government web resources and services.